Location: Las Callecitas
(9.8750°N, 67.4611°W)
Time: 01:52:26
(UTC+00:00)

Cosmos 1908 - Pass Details

Date: 14 April 2024
Orbit: 468 x 485 km, 82.5° (Epoch: 19 May)

Event Time Altitude Azimuth Distance (km) Brightness Sun altitude
Rises 09:40:34 0° 4° (N) 2,529 6.9 -10.3°
Reaches altitude 10° 09:42:43 10° 10° (N) 1,646 6.0 -9.8°
Maximum altitude 09:46:12 48° 85° (E) 628 4.2 -9.0°
Drops below altitude 10° 09:49:39 10° 161° (SSE) 1,633 5.8 -8.1°
Sets 09:51:46 0° 167° (SSE) 2,506 6.7 -7.6°
